[Iaude] MPEC U92: 2013 SL100 [a=43.60,e=0.06,i=3.4,H=7.7]

mpec at mpcdb1.cfa.harvard.edu mpec at mpcdb1.cfa.harvard.edu
Thu Oct 19 18:11:16 EDT 2017


M.P.E.C. 2017-U92                                Issued 2017 Oct. 19, 22:07 UT
 
     The Minor Planet Electronic Circulars contain information on unusual
         minor planets and routine data on comets.  They are published
    on behalf of Division F of the International Astronomical Union by the
          Minor Planet Center, Smithsonian Astrophysical Observatory,
                          Cambridge, MA 02138, U.S.A.

             Prepared using the Tamkin Foundation Computer Network

                              MPC at CFA.HARVARD.EDU
            URL http://www.minorplanetcenter.net/    ISSN 1523-6714


                                  2013 SL100
 
Observations:
     K13SA0L @C2013 08 04.49820 00 54 59.306+02 31 10.24         23.6 rqEU092568
     K13SA0L @C2013 08 05.47365 00 54 57.739+02 30 55.85         23.8 rqEU092568
     K13SA0L @C2013 08 05.51257 00 54 57.676+02 30 54.89         23.8 rqEU092568
     K13SA0L @C2013 08 08.45262 00 54 52.438+02 30 08.62         24.0 rqEU092568
     K13SA0L @C2013 08 08.49147 00 54 52.354+02 30 07.60         23.9 rqEU092568
     K13SA0L @C2013 08 31.53287 00 53 49.611+02 22 00.23         23.6 rqEU092568
     K13SA0L @C2013 08 31.57657 00 53 49.448+02 21 59.09         24.2 rqEU092568
     K13SA0L @C2013 09 01.46210 00 53 46.356+02 21 36.77         23.8 rqEU092568
     K13SA0L @C2013 09 05.40278 00 53 32.087+02 19 54.87         23.8 rqEU092568
     K13SA0L @C2013 09 05.44158 00 53 31.939+02 19 53.73         23.8 rqEU092568
     K13SA0L*@C2013 09 29.32343 00 51 52.169+02 08 37.64         23.7 rqEU092568
     K13SA0L @C2013 09 29.37258 00 51 51.938+02 08 36.21         23.8 rqEU092568
     K13SA0L @C2013 09 29.41164 00 51 51.761+02 08 35.05         23.4 rqEU092568
     K13SA0L @C2013 10 02.40208 00 51 38.286+02 07 07.77         23.8 rqEU092568
     K13SA0L @C2013 10 03.35740 00 51 33.967+02 06 39.79         23.8 rqEU092568
     K13SA0L @C2013 10 03.41811 00 51 33.702+02 06 38.03         23.7 rqEU092568
     K13SA0L @C2013 10 04.47974 00 51 28.860+02 06 07.18         23.8 rqEU092568
     K13SA0L @C2013 10 04.49010 00 51 28.816+02 06 06.73         23.8 rqEU092568
     K13SA0L @C2013 10 09.46022 00 51 06.243+02 03 43.18         24.8 rqEU092568
     K13SA0L @C2013 10 09.46522 00 51 06.213+02 03 43.26         23.8 rqEU092568
     K13SA0L @C2013 12 05.21780 00 47 44.662+01 44 39.21         24.0 rqEU092568
     K13SA0L @C2014 01 02.22061 00 47 28.936+01 45 06.46         23.9 rqEU092568
     K13SA0L @C2014 06 26.57215 01 00 06.942+03 04 25.27         23.9 rqEU092568
     K13SA0L @C2014 07 23.54805 01 00 26.939+03 04 08.07         23.5 rqEU092568
     K13SA0L @C2014 07 27.52700 01 00 24.531+03 03 32.19         23.6 rqEU092568
     K13SA0L @C2014 10 23.31109 00 55 24.972+02 28 37.06         23.7 rqEU092568
     K13SA0L @C2014 10 27.27777 00 55 07.851+02 26 54.66         23.8 rqEU092568
     K13SA0L @C2014 11 24.25948 00 53 26.597+02 17 30.62         23.9 rqEU092568
     K13SA0L @C2014 11 25.28578 00 53 23.788+02 17 16.76         23.5 rqEU092568
     K13SA0L @C2014 12 17.22286 00 52 43.348+02 14 33.46         23.9 rqEU092568
     K13SA0L @C2014 12 17.27972 00 52 43.281+02 14 33.54         24.1 rqEU092568
     K13SA0L @C2015 01 17.24876 00 52 59.654+02 18 42.59         23.8 rqEU092568
 
Observer details:
568 Mauna Kea.  Observers M. T. Bannister, J. J. Kavelaars, B. J. Gladman,
    J.-M. Petit, T. Burdullis.  Measurers S. D. J. Gwyn, Y.-T. Chen,
    M. Alexandersen.  3.6-m Canada-France-Hawaii Telescope + CCD.
 
Orbital elements:
2013 SL100
Epoch 2017 Sept. 4.0 TT = JDT 2458000.5                 MPC
M 347.03402              (2000.0)            P               Q
n   0.00342341     Peri.  263.80332     +0.84077897     -0.53937817
a  43.6010433      Node   128.82779     +0.51731529     +0.77511836
e   0.0557894      Incl.    3.42172     +0.15961084     +0.32903302
P 288              H    7.7           G   0.15           U   5
Residuals in seconds of arc
130804 568  0.1-  0.0     130929 568  0.1-  0.0     140626 568  0.1+  0.1-
130805 568  0.1+  0.2+    130929 568  0.0   0.0     140723 568  0.1-  0.1+
130805 568  0.1+  0.2-    131002 568  0.0   0.1+    140727 568  0.0   0.2-
130808 568  0.0   0.2+    131003 568  0.0   0.0     141023 568  0.0   0.1+
130808 568  0.1-  0.2-    131003 568  0.3+  0.0     141027 568  0.1+  0.1+
130831 568  0.2+  0.1-    131004 568  0.1-  0.1+    141124 568  0.1-  0.1-
130831 568  0.1+  0.1-    131004 568  0.0   0.0     141125 568  0.2+  0.1+
130901 568  0.0   0.1-    131009 568  0.2-  0.0     141217 568  0.0   0.1-
130905 568  0.0   0.1+    131009 568  0.3-  0.3+    141217 568  0.2-  0.0
130905 568  0.0   0.0     131205 568  0.1+  0.0     150117 568  0.1+  0.1+
130929 568  0.0   0.0     140102 568  0.0   0.1-

Ephemeris:
2013 SL100               a,e,i = 43.60, 0.06, 3                  q = 41.169
Date    TT    R. A. (2000) Decl.     Delta      r     Elong.  Phase     V
2017 09 19    01 13 57.3 +04 17 28  40.3102 41.2375   157.1     0.5    23.9
...
2017 10 04    01 12 52.1 +04 10 25  40.2469 41.2369   171.7     0.2    23.9
...
2017 10 12    01 12 15.6 +04 06 37  40.2402 41.2367   176.7     0.1    23.8
...
2017 10 18    01 11 48.1 +04 03 49  40.2478 41.2364   172.8     0.2    23.9
2017 10 19    01 11 43.5 +04 03 22  40.2501 41.2364   171.8     0.2    23.9
2017 10 20    01 11 39.0 +04 02 55  40.2528 41.2364   170.9     0.2    23.9
...
2017 10 26    01 11 12.0 +04 00 14  40.2748 41.2362   165.1     0.4    23.9
...
2017 11 03    01 10 37.4 +03 56 54  40.3206 41.2359   157.0     0.5    23.9
...
2017 11 18    01 09 39.3 +03 51 35  40.4537 41.2353   141.8     0.8    24.0

A. U. Tomatic                (C) Copyright 2017 MPC           M.P.E.C. 2017-U92



More information about the Iaude mailing list